| time (UTC) | temp C | wind direction | speed KPH | gust KPH | rain 1hr cm | rain 24hr cm | rain mn cm | humidity % | barometer mb |
| 20260831014530 | 26 | 122 | 0.0 | 0.0 | 0.00 | 0.00 | 0.00 | 85 | 1017.3 |
| 20260831013031 | 26 | 131 | 0.0 | 0.0 | 0.00 | 0.00 | 0.00 | 84 | 1017.0 |
| 20260831011516 | 26 | 110 | 0.0 | 0.0 | 0.00 | 0.00 | 0.00 | 84 | 1016.7 |
| 20260831010030 | 27 | 121 | 0.0 | 0.0 | 0.00 | 0.00 | 0.00 | 81 | 1016.7 |
| 20260831004530 | 27 | 148 | 0.0 | 0.0 | 0.00 | 0.00 | 0.00 | 80 | 1016.6 |
| 20260831003032 | 28 | 148 | 0.0 | 0.0 | 0.00 | 0.00 | 0.00 | 77 | 1016.3 |
| 20260831001537 | 30 | 148 | 0.0 | 3.2 | 0.00 | 0.00 | 0.00 | 73 | 1016.2 |
| 20260831000020 | 31 | 195 | 0.0 | 3.2 | 0.00 | 0.00 | 0.00 | 69 | 1016.1 |
| 20260830234527 | 31 | 225 | 1.6 | 4.8 | 0.00 | 0.00 | 0.00 | 68 | 1016.1 |
| 20260830233036 | 31 | 218 | 1.6 | 11.3 | 0.00 | 0.00 | 0.00 | 68 | 1016.1 |
| 20260830231531 | 32 | 167 | 3.2 | 12.9 | 0.00 | 0.00 | 0.00 | 66 | 1016.2 |
| 20260830230031 | 31 | 110 | 4.8 | 14.5 | 0.00 | 0.00 | 0.00 | 65 | 1016.1 |
| 20260830224517 | 32 | 89 | 0.0 | 4.8 | 0.00 | 0.00 | 0.00 | 60 | 1016.0 |
| 20260830223024 | 33 | 157 | 1.6 | 6.4 | 0.00 | 0.00 | 0.00 | 57 | 1016.0 |
| 20260830220030 | 34 | 49 | 1.6 | 4.8 | 0.00 | 0.00 | 0.00 | 53 | 1015.8 |
| 20260830214533 | 33 | 100 | 0.0 | 1.6 | 0.00 | 0.00 | 0.00 | 58 | 1015.9 |
| 20260830213018 | 34 | 27 | 1.6 | 8.0 | 0.00 | 0.00 | 0.00 | 53 | 1016.0 |
| 20260830211524 | 34 | 160 | 0.0 | 6.4 | 0.00 | 0.00 | 0.00 | 56 | 1016.0 |
| 20260830210022 | 34 | 72 | 3.2 | 6.4 | 0.00 | 0.00 | 0.00 | 55 | 1016.3 |
| 20260830204534 | 32 | 355 | 1.6 | 1.6 | 0.00 | 0.00 | 0.00 | 61 | 1016.5 |
| 20260830203028 | 33 | 88 | 3.2 | 8.0 | 0.00 | 0.00 | 0.00 | 58 | 1016.6 |
| 20260830201531 | 34 | 23 | 1.6 | 8.0 | 0.00 | 0.00 | 0.00 | 55 | 1016.7 |
| 20260830200030 | 35 | 22 | 3.2 | 8.0 | 0.00 | 0.00 | 0.00 | 54 | 1016.8 |
| 20260830194514 | 34 | 152 | 1.6 | 11.3 | 0.00 | 0.00 | 0.00 | 54 | 1017.0 |
| 20260830193030 | 33 | 82 | 3.2 | 11.3 | 0.00 | 0.00 | 0.00 | 58 | 1017.3 |
| 20260830191535 | 34 | 112 | 6.4 | 11.3 | 0.00 | 0.00 | 0.00 | 58 | 1017.4 |
| 20260830190028 | 33 | 114 | 1.6 | 9.7 | 0.00 | 0.00 | 0.00 | 59 | 1017.6 |
| 20260830184536 | 32 | 96 | 6.4 | 11.3 | 0.00 | 0.00 | 0.00 | 61 | 1017.9 |
| 20260830183021 | 33 | 131 | 3.2 | 8.0 | 0.00 | 0.00 | 0.00 | 62 | 1017.9 |
| 20260830181516 | 32 | 217 | 3.2 | 9.7 | 0.00 | 0.00 | 0.00 | 65 | 1018.3 |
| 20260830180024 | 32 | 115 | 3.2 | 11.3 | 0.00 | 0.00 | 0.00 | 63 | 1018.5 |
| 20260830174530 | 31 | 89 | 3.2 | 9.7 | 0.00 | 0.00 | 0.00 | 66 | 1018.8 |
| 20260830173027 | 31 | 81 | 1.6 | 6.4 | 0.00 | 0.00 | 0.00 | 67 | 1018.9 |
| 20260830171518 | 32 | 327 | 3.2 | 9.7 | 0.00 | 0.00 | 0.00 | 64 | 1019.3 |
| 20260830170017 | 32 | 114 | 3.2 | 9.7 | 0.00 | 0.00 | 0.00 | 66 | 1019.4 |
| 20260830164524 | 31 | 155 | 3.2 | 8.0 | 0.00 | 0.00 | 0.00 | 68 | 1019.5 |
| 20260830163030 | 31 | 67 | 0.0 | 9.7 | 0.00 | 0.00 | 0.00 | 70 | 1019.5 |
| 20260830161528 | 30 | 52 | 3.2 | 8.0 | 0.00 | 0.00 | 0.00 | 70 | 1019.5 |
| 20260830160020 | 31 | 115 | 0.0 | 8.0 | 0.00 | 0.00 | 0.00 | 71 | 1019.6 |
| 20260830154528 | 30 | 67 | 3.2 | 9.7 | 0.00 | 0.00 | 0.00 | 72 | 1019.6 |
| 20260830153033 | 30 | 359 | 1.6 | 4.8 | 0.00 | 0.00 | 0.00 | 74 | 1019.5 |
| 20260830151530 | 30 | 210 | 3.2 | 11.3 | 0.00 | 0.00 | 0.00 | 75 | 1019.5 |
| 20260830144516 | 28 | 334 | 1.6 | 9.7 | 0.00 | 0.00 | 0.00 | 77 | 1019.5 |
| 20260830143027 | 28 | 316 | 1.6 | 11.3 | 0.00 | 0.00 | 0.00 | 78 | 1019.5 |
| 20260830141527 | 28 | 26 | 1.6 | 6.4 | 0.00 | 0.00 | 0.00 | 80 | 1019.5 |
| 20260830140030 | 27 | 115 | 0.0 | 6.4 | 0.00 | 0.00 | 0.00 | 82 | 1019.5 |
| 20260830134539 | 26 | 263 | 1.6 | 9.7 | 0.00 | 0.00 | 0.00 | 83 | 1019.4 |
| 20260830133024 | 26 | 147 | 1.6 | 6.4 | 0.00 | 0.00 | 0.00 | 85 | 1019.4 |
| 20260830131527 | 26 | 127 | 0.0 | 1.6 | 0.00 | 0.00 | 0.00 | 85 | 1019.3 |
| 20260830130029 | 25 | 346 | 0.0 | 1.6 | 0.00 | 0.00 | 0.00 | 91 | 1019.2 |
| 20260830124533 | 23 | 73 | 0.0 | 4.8 | 0.00 | 0.00 | 0.00 | 95 | 1019.2 |
| 20260830123007 | 22 | 124 | 0.0 | 0.0 | 0.00 | 0.00 | 0.00 | 95 | 1019.1 |
| 20260830121505 | 22 | 124 | 0.0 | 0.0 | 0.00 | 0.00 | 0.00 | 95 | 1018.8 |
| 20260830120003 | 22 | 124 | 0.0 | 0.0 | 0.00 | 0.00 | 0.00 | 95 | 1018.6 |
| 20260830114508 | 21 | 124 | 0.0 | 0.0 | 0.00 | 0.00 | 0.00 | 95 | 1018.7 |
| 20260830113014 | 21 | 124 | 0.0 | 0.0 | 0.00 | 0.00 | 0.00 | 95 | 1018.5 |
| 20260830111514 | 21 | 124 | 0.0 | 0.0 | 0.00 | 0.00 | 0.00 | 94 | 1018.4 |
| 20260830110005 | 21 | 124 | 0.0 | 0.0 | 0.00 | 0.00 | 0.00 | 94 | 1018.2 |
| 20260830104510 | 21 | 124 | 0.0 | 0.0 | 0.00 | 0.00 | 0.00 | 94 | 1018.0 |
| 20260830103005 | 21 | 124 | 0.0 | 0.0 | 0.00 | 0.00 | 0.00 | 95 | 1017.8 |
| 20260830101522 | 21 | 124 | 0.0 | 0.0 | 0.00 | 0.00 | 0.00 | 94 | 1017.8 |
| 20260830100007 | 21 | 124 | 0.0 | 0.0 | 0.00 | 0.00 | 0.00 | 94 | 1017.6 |
| 20260830094510 | 21 | 124 | 0.0 | 0.0 | 0.00 | 0.00 | 0.00 | 94 | 1017.8 |
| 20260830093012 | 22 | 124 | 0.0 | 0.0 | 0.00 | 0.00 | 0.00 | 94 | 1017.6 |
| 20260830091503 | 22 | 124 | 0.0 | 0.0 | 0.00 | 0.00 | 0.00 | 94 | 1017.6 |
| 20260830090046 | 21 | 124 | 0.0 | 0.0 | 0.00 | 0.00 | 0.00 | 94 | 1017.6 |
| 20260830084526 | 21 | 124 | 0.0 | 0.0 | 0.00 | 0.00 | 0.00 | 93 | 1017.5 |
| 20260830083036 | 22 | 124 | 0.0 | 0.0 | 0.00 | 0.00 | 0.00 | 94 | 1017.5 |
| 20260830081522 | 22 | 124 | 0.0 | 0.0 | 0.00 | 0.00 | 0.00 | 94 | 1017.5 |
| 20260830080008 | 22 | 124 | 0.0 | 0.0 | 0.00 | 0.00 | 0.00 | 93 | 1017.2 |
| 20260830074520 | 22 | 124 | 0.0 | 0.0 | 0.00 | 0.00 | 0.00 | 93 | 1017.4 |
| 20260830073020 | 22 | 124 | 0.0 | 0.0 | 0.00 | 0.00 | 0.00 | 92 | 1017.5 |
| 20260830071520 | 22 | 130 | 0.0 | 0.0 | 0.00 | 0.00 | 0.00 | 92 | 1017.7 |
| 20260830070023 | 22 | 130 | 0.0 | 0.0 | 0.00 | 0.00 | 0.00 | 92 | 1017.9 |
| 20260830064529 | 22 | 130 | 0.0 | 0.0 | 0.00 | 0.00 | 0.00 | 92 | 1018.0 |
| 20260830063020 | 23 | 130 | 0.0 | 0.0 | 0.00 | 0.00 | 0.00 | 91 | 1018.0 |
| 20260830061516 | 23 | 130 | 0.0 | 0.0 | 0.00 | 0.00 | 0.00 | 90 | 1018.2 |
| 20260830060019 | 23 | 130 | 0.0 | 0.0 | 0.00 | 0.00 | 0.00 | 91 | 1018.5 |
| 20260830054514 | 23 | 130 | 0.0 | 0.0 | 0.00 | 0.00 | 0.00 | 90 | 1018.7 |
| 20260830053028 | 23 | 130 | 0.0 | 0.0 | 0.00 | 0.00 | 0.00 | 90 | 1018.7 |
| 20260830051510 | 23 | 130 | 0.0 | 0.0 | 0.00 | 0.00 | 0.00 | 89 | 1018.7 |
| 20260830050030 | 24 | 131 | 0.0 | 0.0 | 0.00 | 0.00 | 0.00 | 88 | 1018.7 |
| 20260830044531 | 24 | 134 | 0.0 | 0.0 | 0.00 | 0.00 | 0.00 | 88 | 1018.8 |
| 20260830043010 | 25 | 134 | 0.0 | 0.0 | 0.00 | 0.00 | 0.00 | 87 | 1018.8 |
| 20260830041512 | 25 | 81 | 0.0 | 1.6 | 0.00 | 0.00 | 0.00 | 87 | 1018.5 |
| 20260830040017 | 25 | 134 | 0.0 | 3.2 | 0.00 | 0.00 | 0.00 | 88 | 1018.6 |
| 20260830034536 | 25 | 131 | 0.0 | 0.0 | 0.00 | 0.00 | 0.00 | 88 | 1018.5 |
| 20260830033010 | 25 | 131 | 0.0 | 0.0 | 0.00 | 0.00 | 0.00 | 87 | 1018.4 |
| 20260830031515 | 25 | 182 | 0.0 | 0.0 | 0.00 | 0.00 | 0.00 | 87 | 1018.2 |
| 20260830030026 | 25 | 124 | 0.0 | 0.0 | 0.00 | 0.00 | 0.00 | 86 | 1018.0 |
| 20260830024514 | 26 | 108 | 0.0 | 0.0 | 0.00 | 0.00 | 0.00 | 84 | 1017.8 |
| 20260830023030 | 26 | 111 | 0.0 | 1.6 | 0.00 | 0.00 | 0.00 | 84 | 1017.7 |
| 20260830021516 | 26 | 113 | 0.0 | 0.0 | 0.00 | 0.00 | 0.00 | 83 | 1017.6 |
| 20260830020033 | 27 | 112 | 0.0 | 0.0 | 0.00 | 0.00 | 0.00 | 82 | 1017.3 |